Location: Bright Sky Observatory
(40.7821°N, 74.2425°W)
Time: 06:35:07
(UTC-04:00)

Amateur Radio Satellites - All Passes

Search period start: 25 September 2016 06:05
Search period end: 26 September 2016 06:05
Location: Bright Sky Observatory, 40.7821°N, 74.2425°W

Satellite Date Start Highest point End Downlink Frequencies (MHz)
Time Altitude Azimuth
LilacSat-2 25 Sep 06:14:21 06:16:33 15° 92° (E) 06:18:45 437.200
AIST 2 25 Sep 06:15:40 06:18:33 18° 316° (NW) 06:21:27 435.215
AIST 1 25 Sep 06:18:28 06:22:48 58° 280° (W) 06:27:09
CUSAT 1 25 Sep 06:47:06 06:55:06 80° 80° (E) 07:01:53 437.405
HORYU 2 25 Sep 06:52:17 06:56:22 37° 290° (WNW) 07:00:27 437.375
Cosmos 2504 25 Sep 06:57:40 07:01:20 14° 297° (WNW) 07:05:00 435.465 / 435.565
RS-15 25 Sep 07:00:42 07:12:29 54° 249° (WSW) 07:23:58 29.354- 29.394
NOAA 15 25 Sep 07:03:51 07:09:08 67° 102° (ESE) 07:14:23 137.62
AO-7 25 Sep 07:04:52 07:10:13 19° 310° (NW) 07:15:34 29.400- 29.500
Cubesat XI-IV 25 Sep 07:08:16 07:13:35 59° 102° (ESE) 07:18:51 437.490
CUTE-I 25 Sep 07:09:29 07:14:48 62° 102° (ESE) 07:20:06 437.470
BRITE-PL 25 Sep 07:17:19 07:21:55 38° 290° (WNW) 07:26:09 437.365/2234.400
PCSat 25 Sep 07:20:31 07:23:55 17° 318° (NW) 07:27:21 145.827
GOMX 1 25 Sep 07:22:59 07:27:30 77° 285° (WNW) 07:31:45 467.674
NOAA 18 25 Sep 07:23:17 07:28:44 64° 102° (ESE) 07:34:09 137.9125
STRAND 1 25 Sep 07:23:24 07:28:29 83° 75° (ENE) 07:33:38 437.568
CANX-2 25 Sep 07:36:22 07:38:08 12° 90° (E) 07:39:53 2200.000
CUTE 1.7 + AOD 2 25 Sep 07:36:56 07:37:28 10° 89° (E) 07:38:00 437.475
AO-85 25 Sep 07:38:51 07:42:41 38° 244° (WSW) 07:46:18 145.980
HO-68 25 Sep 07:42:22 07:47:35 21° 92° (E) 07:52:46 435.675
DANDE 25 Sep 07:45:44 07:54:08 87° 264° (W) 08:02:11 436.750
LilacSat-2 25 Sep 07:47:26 07:50:59 37° 288° (WNW) 07:54:32 437.200
O/OREOS (USA 219) 25 Sep 07:49:26 07:53:46 47° 107° (ESE) 07:58:10 437.305
CINEMA 3 25 Sep 07:58:51 08:02:20 25° 96° (E) 08:05:50 145.822/145.860
DOVE 4 25 Sep 08:00:36 08:04:50 71° 284° (WNW) 08:08:57 437.250
AAUSAT CUBESAT 2 25 Sep 08:16:30 08:16:48 10° 89° (E) 08:17:04 437.432
GONETS M04 25 Sep 08:18:19 08:25:53 33° 84° (E) 08:33:28
Cosmos 2499 25 Sep 08:21:36 08:27:06 24° 84° (E) 08:32:30 435.465 / 435.565
CUSAT 1 25 Sep 08:30:47 08:35:58 20° 280° (W) 08:40:43 437.405
NOAA 15 25 Sep 08:45:04 08:48:21 17° 299° (WNW) 08:51:36 137.62
Cubesat XI-IV 25 Sep 08:49:31 08:53:10 19° 298° (WNW) 08:56:48 437.490
CUTE-I 25 Sep 08:50:47 08:54:20 18° 298° (WNW) 08:57:53 437.470
PRISM 25 Sep 08:51:11 08:55:18 67° 75° (ENE) 08:59:28 437.425
ZACube-1 25 Sep 08:54:16 08:55:50 12° 91° (E) 08:57:24 437.345
COMPASS 1 25 Sep 08:54:23 08:58:20 37° 97° (E) 09:02:14 437.405
Oscar 11 25 Sep 08:58:09 09:00:04 13° 90° (E) 09:01:58 145.826/435.025
NOAA 18 25 Sep 09:05:15 09:08:51 18° 299° (WNW) 09:12:28 137.9125
STRAND 1 25 Sep 09:07:03 09:08:17 11° 271° (W) 09:09:30 437.568
CUTE 1.7 + AOD 2 25 Sep 09:09:27 09:13:43 67° 285° (WNW) 09:17:59 437.475
CANX-2 25 Sep 09:10:05 09:14:19 57° 286° (WNW) 09:18:32 2200.000
SEEDS 25 Sep 09:16:45 09:21:01 80° 285° (WNW) 09:25:16 437.485
TIGRISAT 25 Sep 09:19:11 09:21:42 15° 65° (ENE) 09:24:11 435.000
CUBEBUG 2 25 Sep 09:27:01 09:31:16 68° 102° (ESE) 09:35:35 437.445
HO-68 25 Sep 09:28:45 09:35:52 70° 290° (WNW) 09:42:57 435.675
O/OREOS (USA 219) 25 Sep 09:30:13 09:33:26 19° 305° (NW) 09:36:41 437.305
DANDE 25 Sep 09:30:29 09:35:47 19° 280° (W) 09:40:59 436.750
CINEMA 3 25 Sep 09:36:01 09:39:25 25° 291° (WNW) 09:42:52 145.822/145.860
FUNcube-1 25 Sep 09:48:00 09:52:07 44° 99° (E) 09:56:19 145.935
AAUSAT CUBESAT 2 25 Sep 09:48:30 09:52:41 65° 285° (WNW) 09:56:49 437.432
UWE-3 25 Sep 09:51:43 09:56:01 85° 106° (ESE) 10:00:24 435.000/436.395/437.385
UNISAT 6 25 Sep 09:57:00 10:01:01 41° 72° (ENE) 10:05:02 437.425
DELFI C3 25 Sep 10:00:31 10:03:48 24° 95° (E) 10:07:03 145.870
BEESAT 3 25 Sep 10:11:27 10:15:00 30° 50° (NE) 10:18:32 437.485
Cosmos 2499 25 Sep 10:12:38 10:19:41 55° 282° (WNW) 10:26:36 435.465 / 435.565
GONETS M04 25 Sep 10:13:42 10:22:15 54° 283° (WNW) 10:30:55
JAS-2 25 Sep 10:17:55 10:21:26 15° 53° (NE) 10:25:07 435.910
ZACube-1 25 Sep 10:28:13 10:32:27 60° 286° (WNW) 10:36:46 437.345
POPSAT HIP 1 25 Sep 10:28:27 10:30:07 12° 63° (ENE) 10:31:46 437.405
COMPASS 1 25 Sep 10:30:40 10:33:36 19° 294° (WNW) 10:36:32 437.405
Oscar 11 25 Sep 10:32:14 10:36:32 56° 286° (WNW) 10:40:47 145.826/435.025
ANTELSAT 25 Sep 10:32:15 10:36:32 79° 258° (WSW) 10:40:48 437.575/2403.000
NANOSAT C BR1 25 Sep 10:45:37 10:48:27 18° 66° (ENE) 10:51:17 145.865
TIGRISAT 25 Sep 10:53:53 10:58:01 47° 261° (W) 11:02:07 435.000
BEESAT 2 25 Sep 11:00:23 11:04:17 48° 54° (NE) 11:08:10 435.950
QB50P2 25 Sep 11:05:01 11:08:47 32° 70° (ENE) 11:12:32 145.880/145.840
CUBEBUG 2 25 Sep 11:06:05 11:07:21 11° 297° (WNW) 11:08:38 437.445
POLYITAN 1 25 Sep 11:07:16 11:11:02 32° 70° (ENE) 11:14:47 437.675
ESTCUBE 1 25 Sep 11:09:14 11:10:26 11° 89° (E) 11:11:37 437.505/2401.250
HUMSAT D 25 Sep 11:15:20 11:19:35 88° 104° (ESE) 11:23:52 437.325/437.525
HO-68 25 Sep 11:19:01 11:22:19 14° 309° (NW) 11:25:38 435.675
FUNcube-1 25 Sep 11:25:16 11:28:02 17° 294° (WNW) 11:30:50 145.935
CUBEBUG 1 25 Sep 11:33:09 11:34:52 12° 90° (E) 11:36:35 437.445
UNISAT 6 25 Sep 11:35:13 11:37:55 16° 267° (W) 11:40:37 437.425
DELFI C3 25 Sep 11:35:14 11:38:34 25° 291° (WNW) 11:41:53 145.870
QB50P1 25 Sep 11:47:54 11:52:07 86° 258° (WSW) 11:56:21 145.935-145.965
DUCHIFAT 1 25 Sep 11:49:09 11:53:21 85° 76° (ENE) 11:57:33 145.980
BEESAT 3 25 Sep 11:49:17 11:52:31 24° 247° (WSW) 11:55:43 437.485
JAS-2 25 Sep 11:58:50 12:05:06 78° 73° (ENE) 12:12:17 435.910
POPSAT HIP 1 25 Sep 12:01:12 12:05:23 61° 259° (W) 12:09:33 437.405
BUGSAT 1 25 Sep 12:04:07 12:08:07 50° 73° (ENE) 12:12:05 437.445
PHONESAT 2.4 25 Sep 12:07:37 12:10:05 24° 155° (SSE) 12:12:35 2401.200-2431.200
AISAT 25 Sep 12:11:43 12:15:27 27° 96° (E) 12:19:09 437.250
NANOSAT C BR1 25 Sep 12:19:57 12:23:53 38° 262° (W) 12:27:49 145.865
50 SAT 25 Sep 12:23:00 12:26:18 30° 97° (E) 12:29:34 437.505
SPROUT 25 Sep 12:26:50 12:30:00 20° 94° (E) 12:33:10 437.525
AUBIESAT-1 25 Sep 12:26:53 12:28:26 13° 98° (E) 12:30:00 437.475
UKube-1 25 Sep 12:34:52 12:38:12 21° 95° (E) 12:41:30 .
BEESAT 2 25 Sep 12:39:26 12:41:41 15° 250° (WSW) 12:43:57 435.950
PCSat 25 Sep 12:41:07 12:43:28 13° 38° (NE) 12:45:48 145.827
QB50P2 25 Sep 12:41:28 12:44:37 20° 266° (W) 12:47:47 145.880/145.840
ESTCUBE 1 25 Sep 12:43:10 12:47:42 70° 285° (WNW) 12:52:11 437.505/2401.250
POLYITAN 1 25 Sep 12:43:44 12:46:52 20° 266° (W) 12:50:01 437.675
Oscar 19 25 Sep 12:46:46 12:51:20 32° 68° (ENE) 12:55:56 437.125/150
VELOX 1 25 Sep 12:55:08 12:59:34 78° 103° (ESE) 13:03:57 145.980
DX 1 25 Sep 12:57:06 13:01:21 49° 100° (E) 13:05:32 434.975-435.025
AIST 2 25 Sep 12:57:22 13:01:10 32° 50° (NE) 13:04:57 435.215
M-CUBED/EXP-1 PRIME 25 Sep 13:00:17 13:03:28 46° 105° (ESE) 13:06:37 437.505
CUBEBUG 1 25 Sep 13:07:15 13:11:31 57° 286° (WNW) 13:15:44 437.445
Gurwin Techsat 1B 25 Sep 13:21:07 13:25:47 32° 67° (ENE) 13:30:28 435.225
ITAMSAT 1 25 Sep 13:36:16 13:38:31 13° 59° (ENE) 13:40:47 435.822/435.867
BUGSAT 1 25 Sep 13:41:54 13:43:45 13° 268° (W) 13:45:36 437.445
PHONESAT 2.4 25 Sep 13:43:03 13:46:00 74° 171° (S) 13:48:58 2401.200-2431.200
JAS-2 25 Sep 13:47:05 13:51:05 17° 274° (W) 13:55:23 435.910
AISAT 25 Sep 13:48:08 13:51:51 27° 292° (WNW) 13:55:32 437.250
50 SAT 25 Sep 13:57:10 13:59:33 17° 293° (WNW) 14:01:57 437.505
TISAT 1 25 Sep 13:57:10 14:01:06 39° 99° (E) 14:05:00 437.305
AUBIESAT-1 25 Sep 14:00:05 14:03:03 30° 294° (WNW) 14:05:59 437.475
SPROUT 25 Sep 14:02:11 14:06:01 33° 289° (WNW) 14:09:49 437.525
Cosmos 2491 25 Sep 14:02:27 14:08:34 22° 79° (E) 14:14:43 435.465 / 435.565
YUBILEINY 25 Sep 14:05:59 14:14:16 46° 75° (ENE) 14:22:30 435.215
UKube-1 25 Sep 14:10:25 14:14:17 32° 290° (WNW) 14:18:07 .
AO-7 25 Sep 14:17:56 14:24:53 31° 57° (ENE) 14:31:49 29.400- 29.500
PCSat 25 Sep 14:22:31 14:27:56 66° 58° (ENE) 14:33:18 145.827
Oscar 19 25 Sep 14:26:02 14:30:36 31° 264° (W) 14:35:12 437.125/150
ITUPSAT 1 25 Sep 14:28:11 14:31:17 17° 92° (E) 14:34:23 437.325
VELOX 1 25 Sep 14:34:23 14:35:22 11° 299° (WNW) 14:36:20 145.980
DX 1 25 Sep 14:34:33 14:37:06 15° 296° (WNW) 14:39:39 434.975-435.025
AIST 2 25 Sep 14:36:04 14:39:31 25° 247° (WSW) 14:42:56 435.215
SWISSCUBE 25 Sep 14:42:08 14:46:11 27° 95° (E) 14:50:13 437.505
Cosmos 2504 25 Sep 14:51:31 14:58:01 32° 72° (ENE) 15:04:49 435.465 / 435.565
BEESAT 25 Sep 14:55:16 14:59:34 32° 97° (E) 15:03:51 436.000
Gurwin Techsat 1B 25 Sep 15:01:00 15:05:41 32° 264° (W) 15:10:24 435.225
ITAMSAT 1 25 Sep 15:12:05 15:17:15 84° 257° (WSW) 15:22:28 435.822/435.867
PHONESAT 2.4 25 Sep 15:19:09 15:22:07 77° 189° (S) 15:25:06 2401.200-2431.200
TISAT 1 25 Sep 15:33:41 15:36:26 17° 295° (WNW) 15:39:11 437.305
Cosmos 2491 25 Sep 15:55:34 16:04:21 78° 278° (W) 16:13:14 435.465 / 435.565
KKS-1 25 Sep 15:56:37 15:59:01 14° 92° (E) 16:01:25 437.445
YUBILEINY 25 Sep 16:03:05 16:10:52 39° 274° (W) 16:18:38 435.215
ITUPSAT 1 25 Sep 16:04:44 16:09:23 51° 289° (WNW) 16:14:03 437.325
PCSat 25 Sep 16:07:24 16:10:44 17° 256° (WSW) 16:14:03 145.827
AO-7 25 Sep 16:08:53 16:17:06 63° 256° (WSW) 16:25:22 29.400- 29.500
SO-50 25 Sep 16:10:51 16:15:40 73° 120° (ESE) 16:20:28 436.795
HORYU 2 25 Sep 16:14:33 16:17:39 19° 65° (ENE) 16:20:46 437.375
SWISSCUBE 25 Sep 16:19:43 16:23:58 32° 292° (WNW) 16:28:12 437.505
O/OREOS (USA 219) 25 Sep 16:22:52 16:23:57 11° 50° (NE) 16:25:03 437.305
AIST 1 25 Sep 16:25:58 16:29:49 31° 76° (ENE) 16:33:37
BEESAT 25 Sep 16:33:13 16:37:13 27° 293° (WNW) 16:41:12 436.000
STARS 25 Sep 16:37:22 16:40:28 19° 94° (E) 16:43:34 437.465
Cosmos 2504 25 Sep 16:44:32 16:51:31 47° 270° (W) 16:58:56 435.465 / 435.565
MOZHAYETS 4 25 Sep 16:46:04 16:50:44 82° 103° (ESE) 16:55:23
NOAA 15 25 Sep 16:47:09 16:49:50 14° 59° (ENE) 16:52:31 137.62
BRITE-PL 25 Sep 16:48:38 16:53:26 29° 67° (ENE) 16:58:14 437.365/2234.400
Cubesat XI-IV 25 Sep 16:53:47 16:56:04 13° 59° (ENE) 16:58:22 437.490
GOMX 1 25 Sep 16:54:29 16:57:20 15° 62° (ENE) 17:00:07 467.674
CUTE-I 25 Sep 16:54:41 16:57:07 13° 59° (ENE) 16:59:32 437.470
PHONESAT 2.4 25 Sep 16:55:29 16:58:04 27° 204° (SSW) 17:00:39 2401.200-2431.200
NOAA 18 25 Sep 17:11:33 17:14:55 17° 60° (ENE) 17:18:16 137.9125
DOVE 4 25 Sep 17:30:26 17:32:39 13° 63° (ENE) 17:34:50 437.250
KKS-1 25 Sep 17:31:35 17:35:53 51° 288° (WNW) 17:40:09 437.445
HORYU 2 25 Sep 17:49:46 17:53:54 40° 261° (W) 17:58:05 437.375
SO-50 25 Sep 17:53:22 17:56:39 18° 319° (NW) 17:59:55 436.795
Cosmos 2491 25 Sep 17:57:51 18:02:48 16° 301° (WNW) 18:07:47 435.465 / 435.565
CUBESAT XI-V 25 Sep 17:58:25 18:03:06 62° 101° (E) 18:07:42 437.345
O/OREOS (USA 219) 25 Sep 17:59:28 18:04:06 87° 66° (ENE) 18:08:41 437.305
AIST 1 25 Sep 18:04:02 18:07:11 20° 273° (W) 18:10:17
CUSAT 1 25 Sep 18:10:11 18:12:28 12° 75° (ENE) 18:14:53 437.405
HO-68 25 Sep 18:12:28 18:16:47 17° 54° (NE) 18:21:06 435.675
STARS 25 Sep 18:12:55 18:16:57 37° 290° (WNW) 18:20:58 437.465
NOAA 15 25 Sep 18:23:35 18:28:53 80° 256° (WSW) 18:34:14 137.62
MOZHAYETS 4 25 Sep 18:25:55 18:27:12 11° 299° (WNW) 18:28:29
BRITE-PL 25 Sep 18:26:20 18:31:40 41° 263° (W) 18:37:00 437.365/2234.400
LilacSat-2 25 Sep 18:28:33 18:32:18 82° 255° (WSW) 18:36:06 437.200
GOMX 1 25 Sep 18:29:20 18:34:48 78° 258° (WSW) 18:40:04 467.674
GONETS M04 25 Sep 18:29:27 18:34:25 16° 59° (ENE) 18:39:19
Cubesat XI-IV 25 Sep 18:30:03 18:35:22 87° 257° (WSW) 18:40:44 437.490
CUTE-I 25 Sep 18:31:06 18:36:24 85° 256° (WSW) 18:41:45 437.470
NOAA 18 25 Sep 18:49:30 18:54:58 71° 257° (WSW) 19:00:26 137.9125
CINEMA 3 25 Sep 19:00:17 19:03:57 25° 69° (ENE) 19:07:31 145.822/145.860
DOVE 4 25 Sep 19:04:39 19:09:47 77° 259° (WSW) 19:14:39 437.250
RS-15 25 Sep 19:12:58 19:22:09 29° 102° (ESE) 19:31:39 29.354- 29.394
DANDE 25 Sep 19:14:46 19:17:03 13° 76° (ENE) 19:19:34 436.750
STRAND 1 25 Sep 19:34:33 19:38:59 29° 96° (E) 19:43:24 437.568
CUBESAT XI-V 25 Sep 19:37:23 19:39:56 15° 297° (WNW) 19:42:27 437.345
COMPASS 1 25 Sep 19:45:04 19:48:28 25° 68° (ENE) 19:51:53 437.405
CUSAT 1 25 Sep 19:46:57 19:52:48 79° 96° (E) 20:00:12 437.405
Oscar 11 25 Sep 19:54:37 19:55:04 10° 61° (ENE) 19:55:30 145.826/435.025
HO-68 25 Sep 19:56:18 20:03:28 85° 74° (ENE) 20:10:41 435.675
CUTE 1.7 + AOD 2 25 Sep 20:01:22 20:05:35 81° 76° (ENE) 20:09:51 437.475
CANX-2 25 Sep 20:02:04 20:06:18 85° 258° (WSW) 20:10:35 2200.000
Cosmos 2499 25 Sep 20:02:23 20:09:36 49° 77° (ENE) 20:17:20 435.465 / 435.565
SEEDS 25 Sep 20:07:45 20:11:54 66° 75° (ENE) 20:16:06 437.485
GONETS M04 25 Sep 20:23:59 20:32:51 78° 82° (E) 20:41:36
CUBEBUG 2 25 Sep 20:24:49 20:28:57 52° 74° (ENE) 20:33:00 437.445
CINEMA 3 25 Sep 20:36:59 20:40:58 30° 263° (W) 20:44:51 145.822/145.860
AAUSAT CUBESAT 2 25 Sep 20:37:54 20:42:03 78° 76° (ENE) 20:46:14 437.432
FUNcube-1 25 Sep 20:43:31 20:47:11 31° 71° (ENE) 20:50:51 145.935
DELFI C3 25 Sep 20:47:06 20:49:17 14° 65° (ENE) 20:51:28 145.870
UWE-3 25 Sep 20:48:22 20:52:30 64° 75° (ENE) 20:56:37 435.000/436.395/437.385
DANDE 25 Sep 20:53:38 20:58:25 76° 282° (WNW) 21:04:53 436.750
STRAND 1 25 Sep 21:13:33 21:18:09 34° 292° (WNW) 21:22:45 437.568
COMPASS 1 25 Sep 21:20:23 21:23:55 26° 265° (W) 21:27:29 437.405
RS-15 25 Sep 21:21:37 21:33:15 80° 304° (NW) 21:45:35 29.354- 29.394
ZACube-1 25 Sep 21:23:32 21:27:41 81° 258° (WSW) 21:31:50 437.345
Oscar 11 25 Sep 21:26:14 21:30:32 78° 258° (WSW) 21:34:53 145.826/435.025
CUSAT 1 25 Sep 21:31:28 21:35:55 19° 300° (WNW) 21:40:59 437.405
ISS 25 Sep 21:41:51 21:45:06 89° 143° (SE) 21:48:23 145.825
HO-68 25 Sep 21:47:41 21:51:59 17° 270° (W) 21:56:18 435.675
AO-85 25 Sep 21:51:12 21:56:24 69° 119° (ESE) 22:01:19 145.980
Cosmos 2499 25 Sep 21:56:00 22:02:25 32° 274° (W) 22:09:14 435.465 / 435.565
CUBEBUG 2 25 Sep 22:04:08 22:05:52 12° 269° (W) 22:07:36 437.445
HUMSAT D 25 Sep 22:06:07 22:10:05 56° 75° (ENE) 22:14:07 437.325/437.525
PRISM 25 Sep 22:08:02 22:12:11 72° 285° (WNW) 22:16:16 437.425
ESTCUBE 1 25 Sep 22:09:08 22:10:23 11° 61° (ENE) 22:11:36 437.505/2401.250
DELFI C3 25 Sep 22:19:53 22:23:43 45° 261° (W) 22:27:35 145.870
FUNcube-1 25 Sep 22:20:26 22:23:29 20° 266° (W) 22:26:32 145.935
GONETS M04 25 Sep 22:22:29 22:28:36 22° 281° (W) 22:34:43
ANTELSAT 25 Sep 22:24:28 22:27:51 21° 94° (E) 22:31:16 437.575/2403.000
CUBEBUG 1 25 Sep 22:29:45 22:31:05 11° 62° (ENE) 22:32:26 437.445
DANDE 25 Sep 22:41:29 22:42:55 11° 307° (NW) 22:44:26 436.750
TIGRISAT 25 Sep 22:45:14 22:49:13 33° 97° (E) 22:53:16 435.000
50 SAT 25 Sep 23:00:40 23:02:37 14° 66° (ENE) 23:04:33 437.505
SO-50 25 Sep 23:04:57 23:05:47 10° 34° (NNE) 23:06:37 436.795
AISAT 25 Sep 23:08:53 23:12:29 24° 67° (ENE) 23:16:04 437.250
JAS-2 25 Sep 23:10:59 23:14:43 14° 84° (E) 23:18:23 435.910
AUBIESAT-1 25 Sep 23:11:34 23:14:42 22° 64° (ENE) 23:17:42 437.475
ISS 25 Sep 23:19:32 23:21:58 19° 341° (NNW) 23:24:25 145.825
SPROUT 25 Sep 23:20:46 23:23:23 16° 65° (ENE) 23:26:00 437.525
UNISAT 6 25 Sep 23:24:46 23:29:10 82° 281° (WNW) 23:33:39 437.425
UKube-1 25 Sep 23:29:30 23:32:31 19° 65° (ENE) 23:35:34 .
AO-85 25 Sep 23:33:35 23:37:17 20° 316° (NW) 23:40:48 145.980
QB50P1 25 Sep 23:34:05 23:36:36 15° 92° (E) 23:39:05 145.935-145.965
DUCHIFAT 1 25 Sep 23:35:04 23:37:09 13° 92° (E) 23:39:13 145.980
RS-15 25 Sep 23:37:55 23:48:04 31° 332° (NNW) 23:58:34 29.354- 29.394
ESTCUBE 1 25 Sep 23:41:59 23:46:30 80° 258° (WSW) 23:51:05 437.505/2401.250
HUMSAT D 25 Sep 23:44:54 23:46:03 11° 270° (W) 23:47:13 437.325/437.525
M-CUBED/EXP-1 PRIME 25 Sep 23:45:36 23:49:49 66° 70° (ENE) 23:53:43 437.505
POPSAT HIP 1 25 Sep 23:46:47 23:49:59 21° 94° (E) 23:53:11 437.405
VELOX 1 25 Sep 23:51:45 23:56:10 66° 74° (ENE) 00:00:35 145.980
DX 1 25 Sep 23:52:08 23:56:16 42° 71° (ENE) 00:00:24 434.975-435.025
ANTELSAT 26 Sep 00:00:39 00:04:37 34° 289° (WNW) 00:08:38 437.575/2403.000
CUBEBUG 1 26 Sep 00:02:20 00:06:45 74° 257° (WSW) 00:11:11 437.445
NANOSAT C BR1 26 Sep 00:04:25 00:08:09 31° 97° (E) 00:11:54 145.865
TIGRISAT 26 Sep 00:22:21 00:25:43 22° 293° (WNW) 00:29:08 435.000
QB50P2 26 Sep 00:25:11 00:29:23 63° 101° (E) 00:33:34 145.880/145.840
POLYITAN 1 26 Sep 00:27:25 00:31:37 64° 101° (E) 00:35:48 437.675
50 SAT 26 Sep 00:32:24 00:35:47 37° 262° (W) 00:39:11 437.505
SO-50 26 Sep 00:42:44 00:47:16 58° 54° (NE) 00:51:40 436.795
AISAT 26 Sep 00:44:50 00:48:48 31° 263° (W) 00:52:47 437.250
AUBIESAT-1 26 Sep 00:45:20 00:49:01 30° 257° (WSW) 00:52:30 437.475
TISAT 1 26 Sep 00:48:36 00:52:13 29° 69° (ENE) 00:55:50 437.305
JAS-2 26 Sep 00:52:57 01:00:53 76° 102° (ESE) 01:08:28 435.910
SPROUT 26 Sep 00:54:51 00:58:57 45° 261° (W) 01:03:04 437.525
ISS 26 Sep 00:57:56 00:59:27 12° 2° (N) 01:00:58 145.825
Oscar 19 26 Sep 01:01:20 01:02:14 10° 88° (E) 01:03:09 437.125/150
UKube-1 26 Sep 01:04:13 01:08:16 39° 261° (W) 01:12:21 .
QB50P1 26 Sep 01:08:34 01:12:34 43° 288° (WNW) 01:16:33 145.935-145.965
DUCHIFAT 1 26 Sep 01:09:03 01:13:06 49° 287° (WNW) 01:17:08 145.980
BUGSAT 1 26 Sep 01:21:09 01:25:10 89° 271° (W) 01:29:12 437.445
POPSAT HIP 1 26 Sep 01:22:05 01:25:48 31° 290° (WNW) 01:29:32 437.405
M-CUBED/EXP-1 PRIME 26 Sep 01:24:03 01:24:34 10° 263° (W) 01:25:04 437.505
DX 1 26 Sep 01:29:43 01:32:37 17° 267° (W) 01:35:32 434.975-435.025
VELOX 1 26 Sep 01:31:40 01:33:02 11° 270° (W) 01:34:25 145.980
ITUPSAT 1 26 Sep 01:34:47 01:38:12 20° 64° (ENE) 01:41:39 437.325
BEESAT 3 26 Sep 01:38:29 01:42:18 56° 118° (ESE) 01:46:09 437.485
Gurwin Techsat 1B 26 Sep 01:39:16 01:41:23 12° 89° (E) 01:43:31 435.225
NANOSAT C BR1 26 Sep 01:40:30 01:43:42 21° 293° (WNW) 01:46:54 145.865
SWISSCUBE 26 Sep 01:48:20 01:52:27 30° 68° (ENE) 01:56:36 437.505
RS-15 26 Sep 01:57:07 02:06:11 23° 7° (N) 02:15:18 29.354- 29.394
BEESAT 26 Sep 02:01:20 02:05:40 36° 70° (ENE) 02:10:02 436.000
QB50P2 26 Sep 02:03:06 02:04:39 12° 297° (WNW) 02:06:11 145.880/145.840
POLYITAN 1 26 Sep 02:05:22 02:06:53 12° 297° (WNW) 02:08:24 437.675
Cosmos 2491 26 Sep 02:06:24 02:15:02 54° 76° (ENE) 02:23:36 435.465 / 435.565
TISAT 1 26 Sep 02:24:30 02:27:50 23° 265° (W) 02:31:11 437.305
SO-50 26 Sep 02:24:40 02:27:13 15° 251° (WSW) 02:29:42 436.795
BEESAT 2 26 Sep 02:29:03 02:32:59 81° 301° (WNW) 02:37:00 435.950
ISS 26 Sep 02:34:11 02:36:51 22° 22° (NNE) 02:39:32 145.825
Oscar 19 26 Sep 02:37:01 02:42:12 86° 286° (WNW) 02:47:20 437.125/150
JAS-2 26 Sep 02:39:02 02:45:03 25° 301° (WNW) 02:50:59 435.910
KKS-1 26 Sep 02:54:55 02:57:16 14° 63° (ENE) 02:59:36 437.445
YUBILEINY 26 Sep 03:06:14 03:14:39 53° 90° (E) 03:23:03 435.215
ITUPSAT 1 26 Sep 03:11:10 03:15:42 44° 261° (W) 03:20:17 437.325
Gurwin Techsat 1B 26 Sep 03:16:35 03:21:55 79° 285° (WNW) 03:27:14 435.225
BEESAT 3 26 Sep 03:17:52 03:20:17 16° 317° (NW) 03:22:43 437.485
ITAMSAT 1 26 Sep 03:25:23 03:30:09 35° 97° (E) 03:34:53 435.822/435.867
SWISSCUBE 26 Sep 03:26:08 03:30:12 28° 264° (W) 03:34:18 437.505
Cosmos 2504 26 Sep 03:31:06 03:36:56 26° 84° (E) 03:42:36 435.465 / 435.565
STARS 26 Sep 03:34:09 03:37:03 18° 65° (ENE) 03:39:57 437.465
BEESAT 26 Sep 03:39:46 03:43:31 23° 265° (W) 03:47:18 436.000
MOZHAYETS 4 26 Sep 03:47:22 03:51:55 74° 75° (ENE) 03:56:30
Cosmos 2491 26 Sep 04:03:52 04:11:27 33° 276° (W) 04:18:59 435.465 / 435.565
ISS 26 Sep 04:10:19 04:13:35 62° 220° (SW) 04:16:50 145.825
BEESAT 2 26 Sep 04:10:34 04:11:29 11° 321° (NW) 04:12:24 435.950
AO-7 26 Sep 04:10:44 04:18:38 46° 100° (E) 04:26:28 29.400- 29.500
RS-15 26 Sep 04:11:41 04:23:19 43° 40° (NE) 04:34:44 29.354- 29.394
Oscar 19 26 Sep 04:19:09 04:20:42 11° 302° (WNW) 04:22:14 437.125/150
KKS-1 26 Sep 04:28:57 04:33:20 58° 259° (W) 04:37:44 437.445
AIST 2 26 Sep 04:32:17 04:36:21 71° 120° (ESE) 04:40:29 435.215
CUSAT 1 26 Sep 04:42:29 04:45:32 12° 54° (NE) 04:48:28 437.405
AIST 1 26 Sep 04:55:35 04:58:44 19° 87° (E) 05:01:53
Gurwin Techsat 1B 26 Sep 04:59:45 05:00:58 11° 303° (WNW) 05:02:11 435.225
CUBESAT XI-V 26 Sep 05:01:05 05:05:41 58° 73° (ENE) 05:10:19 437.345
PCSat 26 Sep 05:03:38 05:08:58 65° 115° (ESE) 05:14:21 145.827
YUBILEINY 26 Sep 05:04:00 05:11:44 34° 289° (WNW) 05:19:31 435.215
ITAMSAT 1 26 Sep 05:05:02 05:09:29 29° 294° (WNW) 05:13:55 435.822/435.867
STARS 26 Sep 05:08:52 05:13:03 44° 260° (W) 05:17:15 437.465
Cosmos 2504 26 Sep 05:22:32 05:29:49 55° 282° (WNW) 05:36:52 435.465 / 435.565
MOZHAYETS 4 26 Sep 05:29:02 05:29:35 10° 271° (W) 05:30:08
HORYU 2 26 Sep 05:40:37 05:44:44 36° 98° (E) 05:48:51 437.375
DANDE 26 Sep 05:49:39 05:55:30 20° 62° (ENE) 06:01:14 436.750
